When you browse on this site, cookies collect data to enhance your experience and personalize the content and advertising you see.
Visit our Privacy Policy to learn more. By continuing to use the site, you agree to this use of cookies and data.

Hourly Weather Podlesice

Today, 10 July, Friday

Time Temperature Precipitation Wind Pressure Humidity
00:00 +17°C° 0 mm 3 mps 730 mmHg 93%
01:00 +17°C° 0 mm 3 mps 731 mmHg 93%
02:00 +17°C° 0.1 mm 3 mps 730 mmHg 92%
03:00 +17°C° 0.1 mm 3 mps 730 mmHg 91%
04:00 +17°C° 0.1 mm 3 mps 730 mmHg 91%
05:00 +18°C° 0 mm 3 mps 730 mmHg 86%
06:00 +20°C° 0 mm 4 mps 730 mmHg 81%
07:00 +21°C° 0 mm 4 mps 730 mmHg 76%
08:00 +23°C° 0 mm 4 mps 730 mmHg 70%
09:00 +26°C° 0 mm 5 mps 730 mmHg 64%
10:00 +27°C° 0 mm 5 mps 730 mmHg 57%
11:00 +28°C° 0 mm 5 mps 730 mmHg 54%
12:00 +29°C° 0 mm 6 mps 729 mmHg 50%
13:00 +30°C° 0 mm 7 mps 729 mmHg 47%
14:00 +30°C° 0 mm 6 mps 729 mmHg 49%
15:00 +30°C° 0 mm 6 mps 729 mmHg 51%
16:00 +30°C° 0 mm 5 mps 729 mmHg 53%
17:00 +28°C° 0 mm 5 mps 728 mmHg 56%
18:00 +27°C° 0 mm 5 mps 728 mmHg 60%
19:00 +25°C° 0 mm 4 mps 728 mmHg 64%
20:00 +24°C° 0.5 mm 3 mps 728 mmHg 72%
21:00 +21°C° 0.5 mm 3 mps 729 mmHg 80%
22:00 +20°C° 0.5 mm 2 mps 729 mmHg 88%
23:00 +19°C° 2.9 mm 3 mps 730 mmHg 90%

Tomorrow, 11 July, Saturday

Time Temperature Precipitation Wind Pressure Humidity
00:00 +19°C° 2.9 mm 3 mps 730 mmHg 93%
01:00 +19°C° 2.9 mm 4 mps 731 mmHg 95%
02:00 +18°C° 0.1 mm 3 mps 731 mmHg 95%
03:00 +17°C° 0.1 mm 3 mps 731 mmHg 94%
04:00 +17°C° 0.1 mm 2 mps 732 mmHg 94%
05:00 +16°C° 0 mm 3 mps 732 mmHg 93%
06:00 +16°C° 0 mm 3 mps 732 mmHg 91%
07:00 +15°C° 0 mm 4 mps 733 mmHg 90%
08:00 +14°C° 0.3 mm 4 mps 733 mmHg 89%
09:00 +14°C° 0.3 mm 4 mps 733 mmHg 89%
10:00 +13°C° 0.3 mm 4 mps 733 mmHg 89%
11:00 +13°C° 0.7 mm 4 mps 734 mmHg 89%
12:00 +12°C° 0.7 mm 4 mps 734 mmHg 89%
13:00 +11°C° 0.7 mm 4 mps 734 mmHg 90%
14:00 +11°C° 2.8 mm 3 mps 734 mmHg 91%
15:00 +12°C° 2.8 mm 2 mps 735 mmHg 93%
16:00 +12°C° 2.8 mm 1 mps 735 mmHg 94%
17:00 +12°C° 0.7 mm 1 mps 735 mmHg 94%
18:00 +12°C° 0.7 mm 1 mps 736 mmHg 93%
19:00 +12°C° 0.7 mm 1 mps 736 mmHg 93%
20:00 +12°C° 0.1 mm 1 mps 736 mmHg 93%
21:00 +12°C° 0.1 mm 1 mps 736 mmHg 93%
22:00 +11°C° 0.1 mm 1 mps 736 mmHg 93%
23:00 +11°C° 0.1 mm 1 mps 736 mmHg 92%

Day after tomorrow, 12 July, Sunday

Time Temperature Precipitation Wind Pressure Humidity
00:00 +11°C° 0.1 mm 1 mps 736 mmHg 92%
01:00 +11°C° 0.1 mm 1 mps 735 mmHg 91%
02:00 +11°C° 0 mm 1 mps 735 mmHg 92%
03:00 +11°C° 0 mm 1 mps 735 mmHg 93%
04:00 +10°C° 0 mm 1 mps 735 mmHg 93%
05:00 +11°C° 0 mm 1 mps 736 mmHg 90%
06:00 +12°C° 0 mm 1 mps 736 mmHg 87%
07:00 +13°C° 0 mm 1 mps 736 mmHg 84%
08:00 +15°C° 0.2 mm 1 mps 736 mmHg 77%
09:00 +16°C° 0.2 mm 2 mps 737 mmHg 70%
10:00 +18°C° 0.2 mm 2 mps 737 mmHg 63%
11:00 +18°C° 0.4 mm 2 mps 737 mmHg 64%
12:00 +18°C° 0.4 mm 3 mps 736 mmHg 65%
13:00 +18°C° 0.4 mm 3 mps 736 mmHg 66%
14:00 +18°C° 0.3 mm 3 mps 736 mmHg 66%
15:00 +18°C° 0.3 mm 3 mps 736 mmHg 66%
16:00 +19°C° 0.3 mm 3 mps 736 mmHg 65%
17:00 +18°C° 0.1 mm 3 mps 736 mmHg 69%
18:00 +17°C° 0.1 mm 2 mps 736 mmHg 73%
19:00 +16°C° 0.1 mm 2 mps 736 mmHg 77%
20:00 +15°C° 0 mm 2 mps 736 mmHg 78%
21:00 +14°C° 0 mm 2 mps 736 mmHg 80%
22:00 +12°C° 0 mm 1 mps 737 mmHg 81%
23:00 +12°C° 0 mm 1 mps 736 mmHg 82%

13 July, Monday

Time Temperature Precipitation Wind Pressure Humidity
00:00 +12°C° 0 mm 1 mps 736 mmHg 82%
01:00 +11°C° 0 mm 1 mps 736 mmHg 83%
02:00 +11°C° 0 mm 1 mps 736 mmHg 84%
03:00 +11°C° 0 mm 1 mps 736 mmHg 84%
04:00 +10°C° 0 mm 2 mps 736 mmHg 84%
05:00 +12°C° 0 mm 2 mps 736 mmHg 81%
06:00 +14°C° 0 mm 2 mps 736 mmHg 78%
07:00 +15°C° 0 mm 2 mps 736 mmHg 75%
08:00 +16°C° 0.1 mm 3 mps 736 mmHg 71%
09:00 +17°C° 0.1 mm 3 mps 736 mmHg 67%
10:00 +18°C° 0.1 mm 4 mps 736 mmHg 63%
11:00 +18°C° 0.1 mm 4 mps 736 mmHg 61%
12:00 +19°C° 0.1 mm 4 mps 736 mmHg 58%
13:00 +19°C° 0.1 mm 4 mps 735 mmHg 55%
14:00 +19°C° 0 mm 4 mps 735 mmHg 56%
15:00 +19°C° 0 mm 4 mps 735 mmHg 56%
16:00 +19°C° 0 mm 3 mps 734 mmHg 56%
17:00 +18°C° 0 mm 3 mps 734 mmHg 62%
18:00 +17°C° 0 mm 2 mps 734 mmHg 68%
19:00 +16°C° 0 mm 2 mps 734 mmHg 74%
20:00 +15°C° 0 mm 2 mps 734 mmHg 78%
21:00 +14°C° 0 mm 1 mps 734 mmHg 83%
22:00 +13°C° 0 mm 1 mps 734 mmHg 88%
23:00 +13°C° 0 mm 1 mps 734 mmHg 89%

14 July, Tuesday

Time Temperature Precipitation Wind Pressure Humidity
00:00 +12°C° 0 mm 1 mps 734 mmHg 89%
01:00 +12°C° 0 mm 1 mps 734 mmHg 89%
02:00 +12°C° 0 mm 1 mps 734 mmHg 90%
03:00 +11°C° 0 mm 1 mps 734 mmHg 90%
04:00 +11°C° 0 mm 1 mps 733 mmHg 91%
05:00 +13°C° 0 mm 1 mps 734 mmHg 86%
06:00 +14°C° 0 mm 1 mps 734 mmHg 81%
07:00 +16°C° 0 mm 1 mps 734 mmHg 76%
08:00 +18°C° 0.1 mm 1 mps 734 mmHg 70%
09:00 +20°C° 0.1 mm 1 mps 734 mmHg 65%
10:00 +21°C° 0.1 mm 1 mps 734 mmHg 59%
11:00 +22°C° 0.1 mm 1 mps 733 mmHg 57%
12:00 +22°C° 0.1 mm 1 mps 733 mmHg 54%
13:00 +23°C° 0.1 mm 1 mps 733 mmHg 52%
14:00 +23°C° 0 mm 1 mps 732 mmHg 52%
15:00 +23°C° 0 mm 1 mps 732 mmHg 52%
16:00 +20°C° 0 mm 0 mps 732 mmHg 52%
17:00 +21°C° 0 mm 1 mps 732 mmHg 58%
18:00 +20°C° 0 mm 1 mps 732 mmHg 64%
19:00 +19°C° 0 mm 1 mps 732 mmHg 69%
20:00 +18°C° 0 mm 1 mps 732 mmHg 74%
21:00 +16°C° 0 mm 1 mps 732 mmHg 78%
22:00 +15°C° 0 mm 1 mps 732 mmHg 82%
23:00 +14°C° 0 mm 1 mps 732 mmHg 83%

15 July, Wednesday

Time Temperature Precipitation Wind Pressure Humidity
00:00 +14°C° 0 mm 1 mps 732 mmHg 84%
01:00 +14°C° 0 mm 1 mps 732 mmHg 85%
02:00 +14°C° 0 mm 1 mps 732 mmHg 85%
03:00 +14°C° 0 mm 1 mps 732 mmHg 85%
04:00 +13°C° 0 mm 1 mps 731 mmHg 86%
05:00 +15°C° 0 mm 1 mps 732 mmHg 82%
06:00 +16°C° 0 mm 2 mps 732 mmHg 78%
07:00 +18°C° 0 mm 2 mps 732 mmHg 75%
08:00 +19°C° 0 mm 2 mps 732 mmHg 70%
09:00 +20°C° 0 mm 2 mps 732 mmHg 64%
10:00 +23°C° 0 mm 2 mps 732 mmHg 59%
11:00 +23°C° 0.1 mm 2 mps 732 mmHg 56%
12:00 +24°C° 0.1 mm 2 mps 732 mmHg 53%
13:00 +25°C° 0.1 mm 2 mps 732 mmHg 49%
14:00 +25°C° 0 mm 2 mps 731 mmHg 49%
15:00 +25°C° 0 mm 2 mps 731 mmHg 49%
16:00 +25°C° 0 mm 1 mps 731 mmHg 49%
17:00 +24°C° 0.1 mm 2 mps 731 mmHg 57%
18:00 +21°C° 0.1 mm 2 mps 731 mmHg 66%
19:00 +20°C° 0.1 mm 2 mps 731 mmHg 74%
20:00 +19°C° 0.3 mm 2 mps 731 mmHg 77%
21:00 +18°C° 0.3 mm 2 mps 731 mmHg 79%
22:00 +18°C° 0.3 mm 1 mps 731 mmHg 82%
23:00 +17°C° 0 mm 2 mps 730 mmHg 82%
Show more